Погода в Петроваце

Черногория     42°12′28″N   18°56′18″E
темп.,
°C
ветер,
м/с
пор.,
м/с
влажн.,
%
обл.,
%
осадки,
мм/ч
давл.,
гПа
погр.,
м
16 июня, ср
ср1623:00+15ссв226229 0.0 101637
02:00+14св33655 0.0 101649
05:00+14св33678 0.0 101546
08:00+19св225998 0.0 1016226
11:00+23з1349100 0.0 10151290
14:00+22зюз3255100 0.0 1015812
17:00+23з335693 0.0 1015463
20:00+19з2269100 0.0 101521
17 июня, чт
чт1723:00+18всв116998 0.0 101611
02:00+17св2275100 0.0 101730
05:00+16св117672 0.0 101729
08:00+21всв11625 0.0 1018238
11:00+23юз225949 0.1 1018745
14:00+24зюз335945 0.3 1017796
17:00+22зюз236197 0.1 1017377
20:00+19ююв1175100 0.4 101722
18 июня, пт
пт1823:00+17св2284100 0.9 101821
02:00+17с118655 2.2 101823
05:00+16ссв118627 0.0 101820
08:00+20всв11750 0.0 1018195
11:00+24юз21582 0.0 1017727
14:00+23зюз33610 0.2 1017693
17:00+22зюз23759 1.3 1016298
20:00+20з1185100 4.3 101615
19 июня, сб
сб1923:00+19св2285100 0.4 101618
02:00+18св118422 0.5 101617
05:00+17св228195 0.0 101630
08:00+21всв11681 0.0 1016190
11:00+26ю11542 0.0 1015716
14:00+25юз32581 0.0 1013841
17:00+25зюз12584 0.1 1013361
20:00+22зсз11753 0.6 101316
20 июня, вс
вс2023:00+21св33770 0.0 101430
02:00+19св33763 0.0 101441
05:00+19св33750 0.0 101438
08:00+23св22635 0.0 1014199
11:00+28с03470 0.0 10141187
14:00+27зюз33522 0.0 10131123
17:00+27юз23537 0.0 1012345
20:00+22зюз11710 0.0 101218